"Pseudo-MPEC" for IWXL1JL

Created 2021 Sep 20 17:07:07 UT using Find_Orb

Click here for an explanation of pseudo-MPECs

 
 Astrometry: 
     IWXL1JL !C2021 09 10CF*9p_q2MvHFVT96fRXm][G4GSR,uvR%i?`4F6\lm6`)TL5gtLGUW84
     IWXL1JL !C2021 09 10s6h.!d:[.HP_2lR#,[WYqxSCFbq\dw$MSighQ*By4B^G46$ur[TCW84
     IWXL1JL !C2021 09 104a@ZI7pgit:B=(0nfRnAstrometryNR!i%7;;E8O,Xc/J3Q9-k5%W84
     IWXL1JL !C2021 09 10Mysm+AnYtIu=O32DXJs?\6(`IYS0%h5,AcL*H+Xq[OHaDZe=SS\bW84
     IWXL1JL !C2021 09 10ogt^'e[Rp)8(TMXUusy/_=c;JyW'nMnC2J$l6_x`Bjhv=QltQYH?W84
     IWXL1JL !C2021 09 10NL+S2Y!/kL37br5nDkCEBj?MlRu1H)1UoDW%5)8LEe!3BE$?D!/cW84
     IWXL1JL !C2021 09 10N!o$fuLIa[?+8xuuj!t/=uredacted;C9uGY?Hh]QDRUd([4i-N/W84
     IWXL1JL !C2021 09 10+I*u%%+BT(\)Oo#R]`)'l8lNsZq5gFDrI)GNbRKp4adV#pm=SuckW84
     IWXL1JL !C2021 09 10A8d!/Sh/x:Y[aaCnf9('ml7J+goZ+`!CJV,Xx08OkyjhmW[v8OBPW84
     IWXL1JL !C2021 09 10y9[A.;LIpIMLU+$K;,;ktcV9:_5j^N%clickY7t_`j.3p?tiZjDAW84
     IWXL1JL !C2021 09 10`io#E%_d+*#4c\K^Be(*xSq'l,rjM2Yv5XQ=f6!iJ?O#:_,m8/dtW84
     IWXL1JL !C2021 09 10UplywX2tmjvxab4=,_\2h94)xtvk)`e8117biI\\924!uH[aTmPmW84
     IWXL1JL !C2021 09 10'Yk!/6_I!QZfiC/8YE,lYaA(YC3Is*,K_obD?=vyhere^?vm109=W84
     IWXL1JL !C2021 09 10LXwT7yR$%*,2Vk'rji@M_PAp`4h`9o8lGnL!81Ft)6trVNforoYAW84
     IWXL1JL !C2021 09 10?s/-6I.)P?pDFqy8(yfe5a8Ei8nH33Bvu2E]o]E]-D]%wvavb'e#W84
     IWXL1JL !C2021 09 10sdmeXoRkkN@WM#Mk:L)Hpf'GbBC%Ib(vLOa^E9P6ApnoNu:hGC6rW84
     IWXL1JL !C2021 09 100=?L:=Q=%Z:,c!j.otyjEG_sBaCCRo-I5Zc,1'eEAK/vqEjp65qOW84
     IWXL1JL !C2021 09 10.9)J7',4KuHi'ZpGYkrBAhngYdWH\,WOj[fq]M+bH.Q*h!+!lWx4W84
     IWXL1JL !C2021 09 10FlUY02'lr8vbsY0i?slM$Po[Jr8H`8:;q%'SqkG?dPO-ISP[)yadW84
     IWXL1JL !C2021 09 10I3WLto@iexplanationgEK@q%eA*\q4Dt6wJq'I2EsFEtr?=_eBYW84
     IWXL1JL !C2021 09 10\GDTiO7:=55S2_%9ck_6ka[?3T]L?%+!'*0p3!dP6S)HmbVTUlypW84

Station data:
(W84) Cerro Tololo-DECam  (S30.169597 W70.806420)  Chile. 4.0-m f/2.87
   reflector + CCD.

Orbital elements:  IWXL1JL
   Perihelion 2021 Aug 12.452403 +/- 31.1966 TT = 10:51:27 (JD 2459438.952403)
Epoch 2021 Sep 10.0 TT = JDT 2459467.5   Earth MOID: 0.0225   Ma: 0.0742
M  18.39230081 +/- 27.375426        (J2000 ecliptic)          AutoNEOCP
n   0.64426791 +/- 0.375982         Peri.  149.94802 +/- 47.754315
a   1.32767480 +/- 0.516527         Node   165.83270 +/- 1.7394044
e   0.2205131 +/- 0.213984          Incl.    0.94264 +/- 0.7216226
P   1.53/558.76d           H 26.0   G  0.15   U 12.1  SR
q 1.03490499 +/- 0.21597    Q 1.62044461 +/- 4.43168
From 21 observations 2021 Sept. 10 (94.1 min); mean residual 0".30
Residuals in arcseconds: 
210910 W84  .98+  .15+    210910 W84  .02-  .15+    210910 W84  .41-  .04+    
210910 W84  .06+  .15-    210910 W84  .64-  .04+    210910 W84  .38-  .21-    
210910 W84  .07+  .08-    210910 W84  .53-  .12-    210910 W84  .42+  .04+    
210910 W84  .10-  .04-    210910 W84  .24-  .11+    210910 W84  .71+  .11+    
210910 W84  .04+  .20-    210910 W84  .13-  .02+    210910 W84  .14-  .12-    
210910 W84  .13-  .05+    210910 W84  .30-  .22+    210910 W84  .75+  .11+    
210910 W84  .28+  .02+    210910 W84  .21-  .00     210910 W84  .07-  .16-    

Ephemerides (geocentric):
Date (UTC) HH   RA              Dec         delta   r     elong  mag " sig PA
---- -- -- --  -------------   -----------  ------ ------ -----  --- ---- ---
2021 09 20 17  21 56 09.658   -14 36 13.07  .08715 1.0793 148.4 22.1  19d 162
2021 09 20 18  21 56 24.462   -14 35 17.75  .08725 1.0794 148.4 22.1  19d 162
2021 09 20 19  21 56 39.238   -14 34 22.45  .08735 1.0795 148.5 22.1  19d 162
2021 09 20 20  21 56 53.986   -14 33 27.18  .08744 1.0796 148.5 22.1  19d 162
2021 09 20 21  21 57 08.707   -14 32 31.92  .08754 1.0797 148.5 22.1  20d 162
2021 09 20 22  21 57 23.399   -14 31 36.68  .08764 1.0798 148.5 22.1  20d 162
2021 09 20 23  21 57 38.065   -14 30 41.46  .08774 1.0799 148.5 22.1  20d 162
2021 09 21 00  21 57 52.702   -14 29 46.27  .08784 1.0800 148.6 22.1  20d 162
2021 09 21 01  21 58 07.312   -14 28 51.09  .08794 1.0801 148.6 22.1  20d 162
2021 09 21 02  21 58 21.894   -14 27 55.93  .08804 1.0801 148.6 22.1  20d 162
2021 09 21 03  21 58 36.450   -14 27 00.80  .08814 1.0802 148.6 22.1  20d 162
2021 09 21 04  21 58 50.977   -14 26 05.68  .08824 1.0803 148.6 22.1  20d 162
2021 09 21 05  21 59 05.477   -14 25 10.59  .08834 1.0804 148.7 22.1  21d 162
2021 09 21 06  21 59 19.950   -14 24 15.52  .08844 1.0805 148.7 22.1  21d 162
2021 09 21 07  21 59 34.396   -14 23 20.48  .08854 1.0806 148.7 22.1  21d 162
2021 09 21 08  21 59 48.815   -14 22 25.45  .08864 1.0807 148.7 22.1  21d 162
2021 09 21 09  22 00 03.206   -14 21 30.45  .08874 1.0808 148.7 22.1  21d 162
2021 09 21 10  22 00 17.570   -14 20 35.47  .08884 1.0809 148.8 22.1  21d 162
2021 09 21 11  22 00 31.908   -14 19 40.51  .08894 1.0810 148.8 22.1  21d 162
2021 09 21 12  22 00 46.218   -14 18 45.58  .08904 1.0811 148.8 22.1  21d 162
2021 09 21 13  22 01 00.501   -14 17 50.67  .08914 1.0811 148.8 22.1  21d 162
2021 09 21 14  22 01 14.758   -14 16 55.78  .08924 1.0812 148.8 22.1  22d 162
2021 09 21 15  22 01 28.987   -14 16 00.92  .08935 1.0813 148.8 22.1  22d 162
2021 09 21 16  22 01 43.190   -14 15 06.08  .08945 1.0814 148.9 22.1  22d 162
2021 09 21 17  22 01 57.366   -14 14 11.27  .08955 1.0815 148.9 22.1  22d 162
2021 09 21 18  22 02 11.516   -14 13 16.48  .08965 1.0816 148.9 22.2  22d 162
2021 09 21 19  22 02 25.638   -14 12 21.72  .08975 1.0817 148.9 22.2  22d 162
2021 09 21 20  22 02 39.734   -14 11 26.98  .08985 1.0818 148.9 22.2  22d 162
2021 09 21 21  22 02 53.804   -14 10 32.27  .08996 1.0819 148.9 22.2  22d 162
2021 09 21 22  22 03 07.847   -14 09 37.58  .09006 1.0820 149.0 22.2  22d 162
2021 09 21 23  22 03 21.864   -14 08 42.92  .09016 1.0821 149.0 22.2  22d 162
2021 09 22 00  22 03 35.854   -14 07 48.28  .09026 1.0821 149.0 22.2  23d 162
2021 09 22 01  22 03 49.818   -14 06 53.67  .09037 1.0822 149.0 22.2  23d 162
2021 09 22 02  22 04 03.755   -14 05 59.09  .09047 1.0823 149.0 22.2  23d 162
2021 09 22 03  22 04 17.667   -14 05 04.53  .09057 1.0824 149.1 22.2  23d 162
2021 09 22 04  22 04 31.552   -14 04 10.00  .09068 1.0825 149.1 22.2  23d 162
2021 09 22 05  22 04 45.411   -14 03 15.50  .09078 1.0826 149.1 22.2  23d 162
2021 09 22 06  22 04 59.244   -14 02 21.02  .09088 1.0827 149.1 22.2  23d 162
2021 09 22 07  22 05 13.051   -14 01 26.57  .09099 1.0828 149.1 22.2  23d 162
2021 09 22 08  22 05 26.832   -14 00 32.15  .09109 1.0829 149.1 22.2  23d 162
2021 09 22 09  22 05 40.587   -13 59 37.76  .09119 1.0830 149.2 22.2  23d 162
2021 09 22 10  22 05 54.316   -13 58 43.39  .09130 1.0831 149.2 22.2  24d 162
2021 09 22 11  22 06 08.020   -13 57 49.06  .09140 1.0832 149.2 22.2  24d 162
2021 09 22 12  22 06 21.697   -13 56 54.75  .09151 1.0832 149.2 22.2  24d 162
2021 09 22 13  22 06 35.349   -13 56 00.47  .09161 1.0833 149.2 22.2  24d 162
2021 09 22 14  22 06 48.975   -13 55 06.22  .09172 1.0834 149.2 22.2  24d 162
2021 09 22 15  22 07 02.576   -13 54 11.99  .09182 1.0835 149.2 22.2  24d 162
2021 09 22 16  22 07 16.151   -13 53 17.80  .09193 1.0836 149.3 22.2  24d 162